This is the latest recevied weather packets stored in our database for station/object EA6AMI-5. If no packets are shown the sender has not sent any weather packets the latest 10 day(s).
| Time | Temp. | Humidity | Pressure | Rain* | Wind** | Luminosity | Snow |
|---|---|---|---|---|---|---|---|
| 1787680443 | 28.89° C | 51% | 1013.3 hPa | 0 mm | - | 29 W/m² | - |
| 1787679904 | 28.89° C | 50% | 1013.3 hPa | 0 mm | - | 38 W/m² | - |
| 1787679364 | 29.44° C | 49% | 1013.1 hPa | 0 mm | - | 49 W/m² | - |
| 1787678823 | 29.44° C | 49% | 1013.3 hPa | 0 mm | - | 56 W/m² | - |
| 1787678284 | 29.44° C | 48% | 1013.2 hPa | 0 mm | - | 66 W/m² | - |
| 1787677743 | 29.44° C | 48% | 1013.2 hPa | 0 mm | - | 84 W/m² | - |
| 1787677204 | 30° C | 48% | 1013.3 hPa | 0 mm | - | 90 W/m² | - |
| 1787676843 | 30° C | 48% | 1013.2 hPa | 0 mm | - | 105 W/m² | - |
| 1787676304 | 30.56° C | 47% | 1013.4 hPa | 0 mm | - | 130 W/m² | - |
| 1787675763 | 30.56° C | 48% | 1013.2 hPa | 0 mm | - | 132 W/m² | - |
| 1787675224 | 30.56° C | 46% | 1013.6 hPa | 0 mm | - | 141 W/m² | - |
| 1787674683 | 31.11° C | 46% | 1013.3 hPa | 0 mm | - | 152 W/m² | - |
| 1787674144 | 31.11° C | 44% | 1013.1 hPa | 0 mm | - | 192 W/m² | - |
| 1787673604 | 31.67° C | 40% | 1013.3 hPa | 0 mm | - | 177 W/m² | - |
| 1787673243 | 31.67° C | 38% | 1013.3 hPa | 0 mm | - | 265 W/m² | - |
| 1787672704 | 32.22° C | 35% | 1013.4 hPa | 0 mm | - | 270 W/m² | - |
| 1787672163 | 32.78° C | 34% | 1013.3 hPa | 0 mm | - | 324 W/m² | - |
| 1787671623 | 32.78° C | 35% | 1013.3 hPa | 0 mm | - | 363 W/m² | - |
| 1787671083 | 33.33° C | 34% | 1013.4 hPa | 0 mm | - | 389 W/m² | - |
| 1787670544 | 33.33° C | 33% | 1013.4 hPa | 0 mm | - | 308 W/m² | - |
| 1787670003 | 33.33° C | 33% | 1013.1 hPa | 0 mm | - | 411 W/m² | - |
| 1787669644 | 33.33° C | 32% | 1013.2 hPa | 0 mm | - | 431 W/m² | - |
| 1787669104 | 33.33° C | 32% | 1013.3 hPa | 0 mm | - | 459 W/m² | - |
| 1787668564 | 33.33° C | 33% | 1013.2 hPa | 0 mm | - | 490 W/m² | - |
| 1787668023 | 33.33° C | 34% | 1013.5 hPa | 0 mm | - | 510 W/m² | - |
* Rain latest hour (hover to see other rain measurements)
** Current wind speed in m/s (hover to see current wind gust speed)